sat.trackr.live / text

‹ back to catalog

STARLINK-35292

NORAD 66322 · 2025-253D

PAYLOAD ACTIVE UNKNOWN

§ Identity

Operator
Country
US
Launch date
2025-11-06
Launch site
AFETR
Launch vehicle
Mass (kg)
RCS (m²)

Purposes: comms

External: N2YO · Heavens-Above · Gunter

§ Orbital elements

Epoch: 2026-09-20T12:29:35.734272Z

Period
94.27 min
Inclination
43.0018°
Eccentricity
0.0001429
Mean motion
15.27595262 rev/d
Perigee alt
482.0 km
Apogee alt
484.0 km
Semi-major
6,861.1 km
B*
1.3287e-4
RAAN
192.0134°
Arg perigee
269.3924°
Mean anomaly
90.6764°
Rev number
5,004

§ Raw data

STARLINK-352921 66322U 25253D   26263.52055248  .00003398  00000+0  13287-3 0  99922 66322  43.0018 192.0134 0001429 269.3924  90.6764 15.27595262 50043

JSON: /api/v1/satellites/66322 · /tle

For live sub-satellite position, see the globe view (requires WebGL).

§ Visibility from observer

Set your observer location to see the next 7 days of passes ≥ 10°. The values pass through the URL so the page stays shareable.

No JS? Fill the form by hand. The geolocation button needs JavaScript.